Change the Weather History Date:

Friday, February 28, 2014

  Actual Average Record
Temperature  
Mean Temperature 24 °F -  
Max Temperature 36 °F 47 °F 77 °F (1972)
Min Temperature 13 °F 26 °F -17 °F (1962)
Degree Days  
Heating Degree Days 40    
Moisture  
Dew Point 13 °F    
Average Humidity 68    
Maximum Humidity 99    
Minimum Humidity 42    
Precipitation  
Precipitation 0.02 in - - ()
Sea Level Pressure  
Sea Level Pressure 29.89 in    
Wind  
Wind Speed 11 mph (NE)    
Max Wind Speed 20 mph    
Max Gust Speed 25 mph    
Visibility 9 miles    
Events Snow    
Averages and records for this station are not official NWS values.
T = Trace of Precipitation, MM = Missing Value Source: NWS Daily Summary

Daily Weather History Graph

Daily Weather History Graph

Search for Another Location

Airport or City:

Trip Planner

Search our weather history database for the weather conditions in past years. The results will help you decide how hot, cold, wet, or windy it might be!

Date:

Astronomy

Feb. 28, 2014 Rise Set
Actual Time 7:02 AM CST 6:15 PM CST
Civil Twilight 6:34 AM CST 6:43 PM CST
Nautical Twilight 6:02 AM CST 7:15 PM CST
Astronomical Twilight 5:30 AM CST 7:47 PM CST
Moon 6:17 AM CST (2/28) 5:54 PM CST (2/28)
Length of Visible Light 12h 09m
Length of Day
11h 13m
Waning Crescent, 1% of the Moon is Illuminated
Feb 28
Waning Crescent
Mar 1
New
Mar 8
First Quarter
Mar 16
Full
Mar 23
Last Quarter

Hourly Weather History & Observations

Time (CST) Temp. Windchill Dew Point Humidity Pressure Visibility Wind Dir Wind Speed Gust Speed Precip Events Conditions
12:15 AM 13.3 °F 1.1 °F 3.0 °F 64% 29.86 in 10.0 mi East 9.2 mph - N/A   Scattered Clouds
12:35 AM 14.5 °F 1.9 °F 3.2 °F 61% 29.85 in 10.0 mi ESE 10.4 mph - N/A   Mostly Cloudy
12:55 AM 15.1 °F 2.5 °F 3.4 °F 60% 29.84 in 10.0 mi ESE 10.4 mph - N/A   Overcast
1:15 AM 15.6 °F 4.0 °F 3.6 °F 59% 29.84 in 10.0 mi ESE 9.2 mph - N/A   Overcast
1:35 AM 15.8 °F 5.1 °F 3.6 °F 59% 29.84 in 10.0 mi ESE 8.1 mph - N/A   Scattered Clouds
1:55 AM 16.2 °F 4.7 °F 3.6 °F 58% 29.84 in 10.0 mi East 9.2 mph - N/A   Clear
2:15 AM 16.9 °F 4.8 °F 3.4 °F 55% 29.83 in 10.0 mi ESE 10.4 mph - N/A   Clear
2:35 AM 17.4 °F 5.4 °F 3.6 °F 55% 29.82 in 10.0 mi ESE 10.4 mph - N/A   Clear
2:55 AM 17.4 °F 4.1 °F 3.7 °F 55% 29.81 in 10.0 mi ESE 12.7 mph 16.1 mph N/A   Clear
3:15 AM 17.6 °F 5.7 °F 3.9 °F 55% 29.79 in 10.0 mi ESE 10.4 mph - N/A   Clear
3:35 AM 17.2 °F 5.2 °F 3.7 °F 56% 29.78 in 10.0 mi ESE 10.4 mph 16.1 mph N/A   Clear
3:55 AM 17.2 °F 4.5 °F 3.9 °F 56% 29.77 in 10.0 mi ESE 11.5 mph - N/A   Clear
4:15 AM 17.2 °F 3.9 °F 3.9 °F 56% 29.77 in 10.0 mi ESE 12.7 mph - N/A   Clear
4:35 AM 16.9 °F 3.4 °F 4.1 °F 57% 29.75 in 10.0 mi ESE 12.7 mph - N/A   Clear
4:55 AM 16.7 °F 3.8 °F 4.6 °F 59% 29.76 in 10.0 mi ESE 11.5 mph - N/A   Clear
5:15 AM 16.7 °F 5.3 °F 5.2 °F 61% 29.77 in 10.0 mi SE 9.2 mph - N/A   Clear
5:35 AM 17.1 °F 5.8 °F 5.7 °F 61% 29.76 in 10.0 mi SE 9.2 mph - N/A   Clear
5:55 AM 16.7 °F 3.8 °F 6.1 °F 63% 29.75 in 10.0 mi SE 11.5 mph 16.1 mph N/A   Scattered Clouds
6:15 AM 16.9 °F 4.1 °F 6.4 °F 64% 29.76 in 10.0 mi SE 11.5 mph - N/A   Scattered Clouds
6:35 AM 16.7 °F 2.6 °F 6.6 °F 65% 29.76 in 10.0 mi SE 13.8 mph - N/A   Clear
6:55 AM 16.7 °F 3.8 °F 6.6 °F 65% 29.75 in 10.0 mi SE 11.5 mph - N/A   Clear
7:15 AM 16.7 °F 4.5 °F 6.8 °F 65% 29.75 in 10.0 mi SE 10.4 mph - N/A   Clear
7:35 AM 17.2 °F 6.0 °F 7.2 °F 65% 29.75 in 10.0 mi SE 9.2 mph 16.1 mph N/A   Clear
7:55 AM 18.1 °F 7.1 °F 7.3 °F 63% 29.76 in 10.0 mi SE 9.2 mph - N/A   Clear
8:15 AM 19.6 °F 7.4 °F 7.7 °F 60% 29.76 in 10.0 mi SSE 11.5 mph 16.1 mph N/A   Scattered Clouds
8:35 AM 20.3 °F 7.2 °F 7.9 °F 59% 29.77 in 10.0 mi SSE 13.8 mph 17.3 mph N/A   Mostly Cloudy
8:55 AM 21.4 °F 8.5 °F 8.6 °F 58% 29.77 in 10.0 mi SSE 13.8 mph - N/A   Scattered Clouds
9:15 AM 22.5 °F 11.7 °F 8.8 °F 56% 29.77 in 10.0 mi SSE 10.4 mph 17.3 mph N/A   Scattered Clouds
9:35 AM 23.9 °F 12.3 °F 9.5 °F 54% 29.77 in 10.0 mi SSE 12.7 mph 17.3 mph N/A   Scattered Clouds
9:55 AM 25.2 °F 15.7 °F 10.2 °F 53% 29.78 in 10.0 mi SSE 9.2 mph - N/A   Clear
10:15 AM 27.0 °F 18.7 °F 11.1 °F 51% 29.79 in 10.0 mi South 8.1 mph - N/A   Clear
10:35 AM 28.2 °F 23.1 °F 12.2 °F 51% 29.81 in 10.0 mi South 4.6 mph - N/A   Clear
10:55 AM 31.5 °F 24.2 °F 13.5 °F 47% 29.81 in 10.0 mi SSW 8.1 mph - N/A   Clear
11:15 AM 32.0 °F 25.6 °F 13.3 °F 46% 29.81 in 10.0 mi SSW 6.9 mph - N/A   Clear
11:35 AM 32.5 °F 26.2 °F 13.6 °F 46% 29.81 in 10.0 mi South 6.9 mph - N/A   Clear
11:55 AM 34.0 °F 29.8 °F 14.7 °F 45% 29.81 in 10.0 mi WSW 4.6 mph - N/A   Clear
12:20 PM 35.1 °F 30.1 °F 15.3 °F 44% 29.82 in 10.0 mi SW 5.8 mph - N/A   Clear
12:35 PM 35.6 °F 28.6 °F 15.8 °F 44% 29.83 in 10.0 mi West 9.2 mph - N/A   Clear
12:55 PM 35.8 °F 29.4 °F 15.3 °F 43% 29.83 in 10.0 mi West 8.1 mph - N/A   Clear
1:15 PM 36.9 °F 32.2 °F 15.6 °F 42% 29.82 in 10.0 mi NW 5.8 mph - N/A   Clear
1:35 PM 35.8 °F 27.8 °F 17.2 °F 47% 29.83 in 10.0 mi West 11.5 mph - N/A   Scattered Clouds
1:55 PM 35.6 °F 26.6 °F 18.5 °F 50% 29.83 in 10.0 mi NW 13.8 mph 18.4 mph N/A   Clear
2:15 PM 35.6 °F 28.6 °F 18.5 °F 50% 29.84 in 10.0 mi NW 9.2 mph - N/A   Clear
2:35 PM 36.1 °F 26.5 °F 20.3 °F 53% 29.85 in 10.0 mi NNW 16.1 mph - N/A   Clear
2:55 PM 33.4 °F 23.5 °F 19.9 °F 58% 29.86 in 10.0 mi NNW 15.0 mph 21.9 mph N/A   Scattered Clouds
3:15 PM 32.2 °F 22.7 °F 23.5 °F 70% 29.88 in 5.0 mi NNW 12.7 mph 20.7 mph N/A Snow Light Snow
3:35 PM 29.8 °F 19.8 °F 27.5 °F 91% 29.90 in 1.8 mi NNW 12.7 mph - N/A Snow Light Snow
3:55 PM 28.0 °F 17.0 °F 25.9 °F 92% 29.92 in 1.8 mi NNW 13.8 mph 20.7 mph N/A Snow Light Snow
4:15 PM 27.5 °F 14.2 °F 25.3 °F 92% 29.93 in 5.0 mi NNW 19.6 mph 25.3 mph N/A   Overcast
4:35 PM 26.4 °F 14.5 °F 24.8 °F 94% 29.94 in 1.0 mi NNW 15.0 mph 24.2 mph N/A Snow Light Snow
5:00 PM 26.2 °F 13.4 °F 25.0 °F 95% 29.95 in 3.0 mi NW 17.3 mph - N/A Snow Light Snow
5:15 PM 25.0 °F 12.6 °F 23.4 °F 94% 29.97 in 4.0 mi NNW 15.0 mph 25.3 mph N/A Snow Light Snow
5:35 PM 23.9 °F 10.3 °F 22.1 °F 93% 29.99 in 1.5 mi NNW 17.3 mph 24.2 mph N/A Snow Light Snow
5:55 PM 22.8 °F 11.5 °F 21.7 °F 96% 30.00 in 1.0 mi North 11.5 mph 20.7 mph N/A Snow Light Snow
6:15 PM 22.1 °F 13.7 °F 21.7 °F 99% 30.01 in 0.5 mi North 6.9 mph 17.3 mph N/A Snow Snow
6:35 PM 22.1 °F 14.7 °F 21.6 °F 98% 30.01 in 2.5 mi North 5.8 mph - N/A Snow Light Snow
6:55 PM 22.1 °F 12.0 °F 21.2 °F 96% 30.02 in 3.0 mi North 9.2 mph - 0.01 in Snow Light Snow
7:15 PM 21.9 °F 14.5 °F 20.7 °F 95% 30.02 in 4.0 mi North 5.8 mph - N/A Snow Light Snow
7:35 PM 21.7 °F 12.3 °F 20.1 °F 93% 30.04 in 5.0 mi North 8.1 mph - N/A Snow Light Snow
7:55 PM 21.6 °F 12.1 °F 19.9 °F 93% 30.05 in 10.0 mi NNW 8.1 mph - N/A Snow Light Snow
8:15 PM 21.7 °F 7.5 °F 19.6 °F 91% 30.07 in 10.0 mi NNW 17.3 mph 21.9 mph 0.01 in Snow Light Snow
8:35 PM 20.5 °F 8.6 °F 16.7 °F 85% 30.08 in 10.0 mi NNW 11.5 mph 24.2 mph 0.01 in   Mostly Cloudy
8:55 PM 20.3 °F 8.3 °F 16.7 °F 86% 30.10 in 10.0 mi NNW 11.5 mph 18.4 mph 0.01 in   Overcast
9:15 PM 19.8 °F 5.9 °F 15.3 °F 83% 30.11 in 10.0 mi North 15.0 mph 21.9 mph N/A   Mostly Cloudy
9:35 PM 19.8 °F 8.3 °F 15.3 °F 83% 30.10 in 10.0 mi North 10.4 mph 21.9 mph N/A   Overcast
9:55 PM 19.4 °F 7.2 °F 14.9 °F 83% 30.11 in 10.0 mi NNW 11.5 mph 20.7 mph N/A   Overcast
10:15 PM 19.4 °F 7.9 °F 14.9 °F 83% 30.13 in 10.0 mi NNW 10.4 mph 18.4 mph N/A   Overcast
10:35 PM 18.5 °F 4.3 °F 13.6 °F 81% 30.15 in 10.0 mi NNW 15.0 mph 18.4 mph N/A   Overcast
10:55 PM 18.3 °F 5.2 °F 13.1 °F 80% 30.15 in 10.0 mi NNW 12.7 mph 20.7 mph N/A   Mostly Cloudy
11:15 PM 18.3 °F 5.9 °F 13.1 °F 80% 30.16 in 10.0 mi NNW 11.5 mph 18.4 mph N/A   Mostly Cloudy
11:35 PM 17.6 °F 3.2 °F 12.2 °F 79% 30.15 in 10.0 mi North 15.0 mph 23.0 mph N/A   Scattered Clouds
11:55 PM 17.4 °F 5.4 °F 12.2 °F 80% 30.16 in 10.0 mi NNW 10.4 mph 18.4 mph N/A   Mostly Cloudy